[[{"header":{"parameterUnit":"m.s-1","parameterCategory":2,"la1":30.2991,"la2":30.254,"lo1":-89.0895,"lo2":-89.0444,"dy":0.0017,"dx":0.0017,"nx":28,"ny":28,"refTime":"2023-07-19T03:00:00:Z","depth":"0","parameterNumber":2,"parameterNumberName":"U-component_of_CURRENTS"},"data":[0,0,0,0,0,0,0,0,0,0,0,0,0,0,0,0,0,0,0,0,0,0,0,0,0,0,0,0,0,0,0,0,0,0,0,0,0,0,0,0,0,0,0,0,0,0,0,0,0,0,0,0,0,0,0,0,0,0,0.1344,0.1345,0,0.1405,0.1405,0.1406,0.1359,0.1357,0.1356,0.1354,0.1428,0.1432,0.1435,0,0,0,0,0,0,0,0,0,0,0,0,0,0.118,0.1183,0.1344,0.1345,0.1346,0.1405,0.1405,0.1406,0.1359,0.1357,0.1355,0.1353,0.1427,0.1431,0.1435,0,0,0,0,0,0,0,0,0,0,0,0,0,0.1243,0.1184,0.1343,0.1333,0.1332,0.1405,0.1405,0.1406,0.136,0.1357,0.1355,0.1352,0.1426,0.1431,0.1436,0.1519,0,0,0.1452,0.1454,0,0,0,0,0,0,0,0,0.124,0.1249,0.1333,0.1333,0.1334,0.1375,0.1375,0.1446,0.136,0.1345,0.1354,0.1351,0.1416,0.1422,0.1433,0.1522,0.1526,0.1453,0.1456,0.1458,0.146,0,0,0,0,0,0,0,0.1235,0.1246,0.1364,0.1335,0.1335,0.1323,0.1328,0.1388,0.1391,0.1347,0.1344,0.1358,0.1415,0.1428,0.1435,0.1527,0.1452,0.1457,0.146,0.1462,0.1801,0.1807,0,0,0,0,0,0,0.124,0.1243,0.1362,0.1366,0.1284,0.1328,0.1334,0.1361,0.139,0.1393,0.136,0.1356,0.1421,0.1429,0.1437,0.1627,0.1458,0.1463,0.1466,0.1796,0.1803,0.1809,0,0,0,0,0,0,0.1236,0.125,0.136,0.1307,0.1321,0.1334,0.1364,0.1364,0.1386,0.1401,0.1403,0.1383,0.1419,0.143,0.1531,0.1626,0.1465,0.147,0.1789,0.1798,0.1806,0.1949,0,0,0,0,0,0,0.1231,0.1249,0.1285,0.1309,0.1324,0.1435,0.1367,0.1367,0.14,0.1394,0.1423,0.1426,0.1418,0.1524,0.1537,0.163,0.1474,0.1781,0.1793,0.1803,0.1937,0.1962,0.1983,0,0,0,0,0,0.1225,0.1298,0.1287,0.1302,0.1369,0.1439,0.1447,0.1442,0.1403,0.1445,0.1468,0.1425,0.1602,0.1533,0.1547,0.1644,0.1776,0.179,0.1802,0.1927,0.1957,0.1983,0,0,0,0,0,0,0.1267,0.1301,0.1289,0.1372,0.1411,0.1432,0.1479,0.1463,0.1512,0.1511,0.1495,0.1504,0.1639,0.1632,0.1555,0.178,0.1686,0.1703,0.1777,0.1805,0.1827,0.1896,0.1479,0,0,0,0,0,0.1289,0.1345,0.137,0.1446,0.1463,0.147,0.1499,0.15,0.1538,0.1553,0.1573,0.162,0.1708,0.1741,0.1813,0.1925,0.1939,0.2003,0.2026,0.2045,0.2116,0.2189,0.2224,0.1852,0.1852,0.1852,0,0,0.1335,0.1358,0.1396,0.1457,0.148,0.1559,0.1482,0.155,0.1633,0.1562,0.1684,0.171,0.1762,0.1899,0.1957,0.1896,0.2161,0.2062,0.2077,0.2139,0.2207,0.2242,0.2274,0.1861,0.1859,0.1858,0,0,0.1461,0.1466,0.1552,0.1583,0.1632,0.1646,0.167,0.1707,0.1736,0.1848,0.184,0.1935,0.2023,0.2101,0.2146,0.2349,0.229,0.2351,0.2508,0.2577,0.2607,0.2634,0.269,0.2721,0.2346,0.2347,0.2347,0,0.1515,0.1611,0.1595,0.1676,0.1719,0.1692,0.1794,0.1844,0.1916,0.1971,0.1913,0.2113,0.2143,0.2342,0.2417,0.2405,0.2414,0.2382,0.2603,0.263,0.2655,0.2706,0.2738,0.2355,0.2354,0.2353,0.2353,0,0.1698,0.1763,0.1819,0.1905,0.1958,0.204,0.2084,0.2151,0.216,0.2204,0.2376,0.242,0.2524,0.256,0.2556,0.277,0.2709,0.2624,0.2518,0.2701,0.2744,0.2774,0.2367,0.2364,0.2362,0.236,0,0,0.1841,0.1929,0.1947,0.1983,0.2071,0.2121,0.2277,0.2401,0.2478,0.2567,0.2691,0.2873,0.2849,0.2908,0.2902,0.299,0.3168,0.2894,0.2893,0.2928,0.3313,0.3239,0.3264,0.3087,0.3094,0.3099,0.3266,0,0.1986,0.2134,0.2168,0.2315,0.2376,0.2398,0.2524,0.2629,0.2691,0.28,0.2895,0.3,0.299,0.3006,0.3121,0.3144,0.3259,0.3132,0.3156,0.3159,0.305,0.3302,0.3331,0.348,0.3295,0.33,0.3304,0,0.2146,0.2212,0.2361,0.2444,0.2477,0.2566,0.2698,0.2808,0.2967,0.3007,0.3144,0.3171,0.3368,0.3271,0.3488,0.3388,0.3414,0.3428,0.343,0.3348,0.3145,0.3275,0.3542,0.3458,0.335,0.3347,0.3343,0,0.2181,0.2336,0.2436,0.2471,0.2586,0.2657,0.2725,0.2869,0.2935,0.3115,0.3148,0.3372,0.3415,0.3541,0.3589,0.3535,0.3772,0.3663,0.3652,0.3643,0.368,0.3663,0.386,0.3864,0.3864,0.3863,0.3863,0,0.2276,0.2349,0.244,0.248,0.2578,0.2662,0.2769,0.2863,0.2991,0.3079,0.3221,0.3312,0.3478,0.3601,0.3668,0.3771,0.383,0.3783,0.3724,0.3728,0.3715,0.3643,0.3581,0.3869,0.3868,0.3867,0.3866,0,0.2256,0.2338,0.2418,0.254,0.2573,0.2619,0.2712,0.278,0.2908,0.3019,0.3065,0.328,0.3469,0.3621,0.3808,0.3823,0.3876,0.3946,0.3939,0.388,0.3769,0.3713,0.3752,0.367,0.4006,0.4006,0.4006,0,0.2241,0.2286,0.2394,0.2416,0.2454,0.2527,0.2569,0.2706,0.2767,0.299,0.3035,0.3266,0.3415,0.3681,0.3842,0.401,0.3891,0.4047,0.3985,0.3868,0.3763,0.3576,0.3489,0.4093,0.4094,0.4094,0.4094,0,0.2178,0.2215,0.2263,0.2315,0.2353,0.2403,0.2477,0.2509,0.2686,0.2784,0.2946,0.3092,0.3431,0.364,0.3861,0.3982,0.3924,0.4055,0.3975,0.3938,0.3718,0.357,0.3841,0.4099,0.4098,0.4098,0.4098,0.4097,0.2082,0.2087,0.2149,0.2194,0.223,0.2271,0.2293,0.2383,0.2465,0.2628,0.2807,0.3,0.3401,0.3763,0.3822,0.4011,0.3928,0.4013,0.3985,0.3825,0.3684,0.3954,0.4084,0.4083,0.4083,0.4083,0.4082,0,0.1965,0.2003,0.2028,0.2078,0.2084,0.2157,0.2226,0.2258,0.2323,0.2507,0.2645,0.3017,0.3333,0.3643,0.4004,0.3953,0.3828,0.3926,0.3742,0.3678,0.401,0.395,0.4007,0.4007,0.4007,0.4007,0.4007,0.4007,0.1902,0.191,0.1949,0.1936,0.1965,0.1975,0.2005,0.2071,0.2192,0.2369,0.2551,0.2745,0.3218,0.375,0.3938,0.3925,0.3676,0.3628,0.3489,0.38,0.3806,0.3811,0.3743,0.3755,0.3755,0.3113,0.3109,0.3106]},{"header":{"parameterUnit":"m.s-1","parameterCategory":2,"la1":30.2991,"la2":30.254,"lo1":-89.0895,"lo2":-89.0444,"dy":0.0017,"dx":0.0017,"nx":28,"ny":28,"refTime":"2023-07-19T03:00:00:Z","depth":"0","parameterNumber":3,"parameterNumberName":"V-component_of_CURRENTS"},"data":[0,0,0,0,0,0,0,0,0,0,0,0,0,0,0,0,0,0,0,0,0,0,0,0,0,0,0,0,0,0,0,0,0,0,0,0,0,0,0,0,0,0,0,0,0,0,0,0,0,0,0,0,0,0,0,0,0,0,0.0969,0.0969,0,0.0936,0.0936,0.0935,0.0887,0.0887,0.0886,0.0886,0.0836,0.0835,0.0835,0,0,0,0,0,0,0,0,0,0,0,0,0,0.0882,0.0884,0.0969,0.0969,0.0969,0.0936,0.0936,0.0935,0.0887,0.0887,0.0886,0.0886,0.0837,0.0836,0.0835,0,0,0,0,0,0,0,0,0,0,0,0,0,0.0889,0.0885,0.0969,0.0944,0.0942,0.0937,0.0936,0.0935,0.0888,0.0887,0.0886,0.0885,0.0837,0.0836,0.0834,0.0842,0,0,0.0831,0.083,0,0,0,0,0,0,0,0,0.0888,0.0892,0.0948,0.0946,0.0943,0.0918,0.0887,0.0904,0.0888,0.0904,0.0886,0.0885,0.0865,0.0861,0.0852,0.084,0.0838,0.083,0.083,0.0829,0.0829,0,0,0,0,0,0,0,0.0888,0.0892,0.0953,0.0948,0.0945,0.0897,0.0898,0.0889,0.0886,0.0903,0.09,0.0902,0.0863,0.0854,0.0851,0.0837,0.0831,0.0829,0.0829,0.0828,0.089,0.0892,0,0,0,0,0,0,0.0906,0.0893,0.0954,0.0952,0.0917,0.09,0.09,0.0924,0.0887,0.0882,0.0903,0.09,0.0856,0.0852,0.0849,0.0922,0.0829,0.0828,0.0827,0.0887,0.089,0.0893,0,0,0,0,0,0,0.0905,0.0913,0.0955,0.0922,0.0925,0.0904,0.0929,0.0924,0.0926,0.0888,0.0881,0.0912,0.0855,0.0851,0.0872,0.0917,0.0827,0.0826,0.0885,0.0888,0.0892,0.1025,0,0,0,0,0,0,0.0903,0.0913,0.0939,0.0925,0.0928,0.0982,0.093,0.0924,0.0929,0.0926,0.0894,0.0887,0.0854,0.0875,0.0871,0.0913,0.0825,0.0882,0.0886,0.089,0.1018,0.1033,0.1046,0,0,0,0,0,0.09,0.095,0.0941,0.0948,0.0964,0.0984,0.0982,0.0959,0.0931,0.0953,0.0933,0.0889,0.09,0.0876,0.0871,0.0914,0.0879,0.0885,0.089,0.1012,0.103,0.1046,0,0,0,0,0,0,0.095,0.095,0.0939,0.0994,0.0999,0.0978,0.0994,0.0974,0.0972,0.097,0.092,0.0914,0.0953,0.0917,0.0891,0.0946,0.0883,0.0887,0.0977,0.0993,0.1007,0.1058,0.0824,0,0,0,0,0,0.0969,0.0994,0.0992,0.104,0.1041,0.1017,0.1021,0.1013,0.1006,0.1003,0.0978,0.0962,0.097,0.0969,0.0966,0.0993,0.0953,0.1018,0.1032,0.1044,0.1084,0.1033,0.1046,0.0911,0.091,0.091,0,0,0.1013,0.1007,0.1031,0.1049,0.1043,0.108,0.1018,0.1044,0.1087,0.1,0.1044,0.1015,0.0991,0.1029,0.1041,0.1004,0.1066,0.1051,0.1062,0.1096,0.104,0.1053,0.1064,0.0914,0.0914,0.0913,0,0,0.1098,0.1096,0.114,0.114,0.1142,0.1138,0.1152,0.1143,0.115,0.1187,0.1142,0.1141,0.1142,0.1134,0.1131,0.122,0.1147,0.1217,0.1324,0.1273,0.1284,0.1292,0.1273,0.1278,0.1217,0.1217,0.1218,0,0.1145,0.1201,0.1162,0.1191,0.1213,0.1172,0.1236,0.1243,0.1247,0.1278,0.1226,0.1247,0.1198,0.1265,0.1288,0.1253,0.1223,0.1258,0.1291,0.1298,0.1305,0.1282,0.1287,0.1224,0.1224,0.1223,0.1222,0,0.1258,0.1293,0.1319,0.1345,0.1365,0.1413,0.1416,0.1448,0.1439,0.1445,0.1503,0.1438,0.1449,0.1428,0.1383,0.1427,0.1392,0.1316,0.1246,0.1326,0.1298,0.13,0.1235,0.1232,0.123,0.1228,0,0,0.1382,0.1398,0.1406,0.1429,0.145,0.1478,0.1564,0.1635,0.1692,0.1686,0.1761,0.1745,0.1695,0.169,0.1621,0.1574,0.1567,0.1476,0.1469,0.1456,0.1486,0.1392,0.1385,0.1488,0.1489,0.1489,0.1451,0,0.1485,0.1559,0.1558,0.1654,0.1691,0.1689,0.1765,0.1817,0.1841,0.1894,0.1864,0.189,0.1801,0.1786,0.1742,0.1608,0.1579,0.1587,0.1412,0.1409,0.1313,0.1386,0.1414,0.1376,0.1453,0.1453,0.1453,0,0.159,0.1622,0.1721,0.1779,0.1802,0.1859,0.1962,0.2025,0.2096,0.2109,0.2146,0.2106,0.2091,0.1959,0.1832,0.1841,0.1699,0.1583,0.1577,0.1451,0.1319,0.1305,0.1376,0.1099,0.1456,0.1456,0.1456,0,0.165,0.1735,0.1813,0.183,0.1897,0.1961,0.2016,0.2095,0.2154,0.2236,0.2268,0.2268,0.2237,0.2092,0.186,0.1846,0.168,0.1614,0.1423,0.1415,0.1389,0.1376,0.1173,0.1531,0.1532,0.1532,0.1532,0,0.173,0.1788,0.1839,0.1871,0.1974,0.201,0.2127,0.2184,0.2272,0.235,0.2363,0.2411,0.2259,0.2146,0.1935,0.169,0.1734,0.148,0.1404,0.1436,0.1429,0.1142,0.0999,0.153,0.1531,0.1531,0.1531,0,0.1748,0.1788,0.1862,0.1953,0.1985,0.2046,0.2158,0.2243,0.232,0.242,0.2448,0.251,0.2401,0.2209,0.1967,0.1771,0.1394,0.1425,0.1491,0.1423,0.1006,0.0872,0.0712,0.0583,0.1264,0.1262,0.1259,0,0.1765,0.1803,0.1888,0.1934,0.197,0.2065,0.2141,0.2244,0.2328,0.2471,0.2522,0.2513,0.2524,0.2183,0.1847,0.1517,0.1304,0.1303,0.1274,0.1011,0.0805,0.0785,0.0687,0.1308,0.1306,0.1305,0.1304,0,0.1794,0.181,0.186,0.1938,0.2015,0.2108,0.2221,0.2289,0.2422,0.2504,0.2614,0.2652,0.2436,0.2174,0.1752,0.1522,0.1141,0.1264,0.0977,0.0826,0.0811,0.064,0.1312,0.1293,0.1294,0.1295,0.1296,0.1296,0.1804,0.1823,0.1881,0.1946,0.2037,0.2145,0.2218,0.234,0.2456,0.2588,0.2655,0.2711,0.2416,0.1897,0.1532,0.0928,0.0999,0.0788,0.0655,0.0666,0.0515,0.1167,0.1047,0.1047,0.1046,0.1046,0.1046,0,0.1808,0.183,0.1899,0.1979,0.2062,0.2119,0.2271,0.2345,0.2459,0.2599,0.2688,0.2584,0.2119,0.1635,0.0883,0.0413,0.0303,0.018,0.016,0.009,0.0658,0.0625,0.0424,0.0424,0.0425,0.0425,0.0425,0.0426,0.1813,0.1849,0.1868,0.1976,0.2041,0.2158,0.2236,0.2355,0.2477,0.2601,0.2654,0.2759,0.2421,0.1057,0.0082,-0.0145,-0.0485,-0.0478,-0.0707,-0.0348,-0.0301,-0.0255,-0.0323,-0.0718,-0.072,-0.1151,-0.1156,-0.116]}],[{"header":{"parameterUnit":"m.s-1","parameterCategory":2,"la1":30.2991,"la2":30.254,"lo1":-89.0895,"lo2":-89.0444,"dy":0.0017,"dx":0.0017,"nx":28,"ny":28,"refTime":"2023-07-19T03:00:00:Z","depth":"2","parameterNumber":2,"parameterNumberName":"U-component_of_CURRENTS"},"data":[0,0,0,0,0,0,0,0,0,0,0,0,0,0,0,0,0,0,0,0,0,0,0,0,0,0,0,0,0,0,0,0,0,0,0,0,0,0,0,0,0,0,0,0,0,0,0,0,0,0,0,0,0,0,0,0,0,0,0.0704,0.0705,0,0.0726,0.0726,0.0726,0.074,0.074,0.074,0.074,0.0758,0.0759,0.0759,0,0,0,0,0,0,0,0,0,0,0,0,0,0.0625,0.0627,0.0704,0.0705,0.0705,0.0726,0.0726,0.0726,0.074,0.074,0.074,0.074,0.0758,0.0759,0.0759,0,0,0,0,0,0,0,0,0,0,0,0,0,0.0655,0.0627,0.0704,0.0714,0.0715,0.0726,0.0726,0.0726,0.074,0.074,0.074,0.074,0.0758,0.0758,0.0759,0.0763,0,0,0.0761,0.0762,0,0,0,0,0,0,0,0,0.0653,0.0658,0.0712,0.0713,0.0714,0.073,0.0705,0.0738,0.074,0.0731,0.074,0.074,0.0748,0.0749,0.0754,0.0764,0.0764,0.0761,0.0762,0.0762,0.0762,0,0,0,0,0,0,0,0.0651,0.0657,0.0713,0.0712,0.0714,0.0699,0.0704,0.0711,0.0739,0.0732,0.0732,0.0734,0.0749,0.0754,0.0755,0.0765,0.0761,0.0762,0.0762,0.0763,0.0872,0.0874,0,0,0,0,0,0,0.065,0.0655,0.0713,0.0714,0.0682,0.0701,0.0706,0.0725,0.0739,0.0741,0.0734,0.0734,0.0752,0.0754,0.0755,0.0833,0.0762,0.0763,0.0763,0.087,0.0873,0.0875,0,0,0,0,0,0,0.0649,0.0656,0.0712,0.0683,0.0689,0.0703,0.0723,0.0725,0.0739,0.0741,0.0743,0.0746,0.0752,0.0754,0.0787,0.0831,0.0763,0.0764,0.0867,0.087,0.0874,0.0942,0,0,0,0,0,0,0.0647,0.0656,0.0669,0.0684,0.0691,0.0728,0.0723,0.0726,0.0739,0.074,0.0752,0.0753,0.0753,0.0786,0.0788,0.0831,0.0764,0.0863,0.0868,0.0873,0.0936,0.0947,0.0957,0,0,0,0,0,0.0644,0.0663,0.067,0.0677,0.071,0.0729,0.0731,0.074,0.0739,0.0751,0.077,0.0753,0.0817,0.0788,0.079,0.0834,0.0861,0.0867,0.0872,0.0932,0.0945,0.0957,0,0,0,0,0,0,0.0631,0.0667,0.0675,0.0703,0.0718,0.0731,0.0742,0.0745,0.0768,0.0776,0.0774,0.0777,0.0825,0.0822,0.0789,0.0883,0.0841,0.0847,0.0886,0.0898,0.0908,0.0892,0.0765,0,0,0,0,0,0.0636,0.0662,0.0686,0.0707,0.072,0.0732,0.0741,0.0751,0.077,0.078,0.0793,0.0817,0.0848,0.0865,0.0885,0.0927,0.0909,0.0962,0.0972,0.0981,0.0971,0.0967,0.0975,0.0894,0.0894,0.0893,0,0,0.0633,0.0657,0.067,0.0706,0.0721,0.0747,0.0739,0.0763,0.0788,0.0778,0.0824,0.0847,0.0867,0.0922,0.0944,0.0925,0.1006,0.0988,0.0995,0.098,0.0973,0.0981,0.0987,0.0897,0.0897,0.0896,0,0,0.0642,0.0669,0.0695,0.0716,0.0747,0.0761,0.077,0.08,0.0819,0.0863,0.0874,0.0923,0.096,0.0994,0.1012,0.1089,0.1056,0.1104,0.1144,0.1141,0.1147,0.1151,0.1178,0.1184,0.1114,0.1114,0.1114,0,0.0632,0.0678,0.0701,0.0733,0.0751,0.077,0.0798,0.0824,0.0861,0.0879,0.0889,0.0966,0.0997,0.1056,0.1103,0.1111,0.1103,0.1093,0.1151,0.1155,0.1158,0.1184,0.119,0.1118,0.1117,0.1117,0.1116,0,0.0666,0.07,0.0718,0.077,0.0792,0.082,0.0857,0.0888,0.0916,0.0939,0.1002,0.1049,0.109,0.1129,0.1146,0.1201,0.1189,0.1157,0.111,0.1169,0.1195,0.1199,0.1123,0.1122,0.1121,0.112,0,0,0.0642,0.0725,0.0729,0.0757,0.0815,0.0832,0.0885,0.0929,0.0953,0.1011,0.1043,0.1141,0.1156,0.118,0.1211,0.1234,0.1292,0.1216,0.1214,0.1227,0.13,0.1317,0.1324,0.1255,0.1255,0.1256,0.1321,0,0.0657,0.0719,0.0758,0.0807,0.0842,0.0878,0.0917,0.096,0.1,0.1039,0.1095,0.1144,0.1177,0.121,0.1239,0.1273,0.13,0.1278,0.1253,0.1254,0.1247,0.1328,0.1252,0.1305,0.1325,0.1326,0.1326,0,0.0673,0.0716,0.0768,0.0829,0.0845,0.0874,0.0926,0.0968,0.1026,0.1059,0.111,0.1141,0.1223,0.122,0.1295,0.1273,0.1295,0.1314,0.1315,0.1301,0.1278,0.1243,0.1312,0.1334,0.1333,0.1333,0.1332,0,0.0639,0.0716,0.0754,0.0777,0.0851,0.0873,0.091,0.0969,0.1004,0.1067,0.1098,0.1164,0.1212,0.1239,0.1311,0.1298,0.1362,0.1342,0.1376,0.1378,0.1294,0.1288,0.1365,0.1365,0.1365,0.1365,0.1365,0,0.0636,0.0661,0.0739,0.0757,0.0793,0.0853,0.089,0.0934,0.0997,0.1042,0.1102,0.115,0.1213,0.1264,0.1304,0.1372,0.1358,0.1399,0.1396,0.1323,0.1319,0.1312,0.1304,0.1367,0.1367,0.1366,0.1366,0,0.0587,0.0641,0.068,0.0754,0.0777,0.0798,0.0873,0.0899,0.0971,0.1029,0.1054,0.115,0.1249,0.1305,0.137,0.1379,0.1426,0.1439,0.1374,0.1363,0.145,0.1446,0.1503,0.1504,0.1505,0.1506,0.1506,0,0.057,0.0587,0.0657,0.0675,0.0707,0.0755,0.0784,0.0869,0.0907,0.1036,0.1058,0.1177,0.1275,0.1387,0.1432,0.1505,0.1484,0.1435,0.1405,0.1473,0.1464,0.1458,0.1453,0.1337,0.1337,0.1336,0.1335,0,0.0526,0.0544,0.0575,0.0622,0.0652,0.0692,0.075,0.078,0.089,0.0963,0.1084,0.1181,0.1331,0.1401,0.1482,0.1492,0.1424,0.1428,0.1496,0.1318,0.1323,0.1312,0.1311,0.133,0.133,0.1331,0.1331,0.1331,0.0476,0.0483,0.0526,0.0566,0.0603,0.064,0.0664,0.0741,0.0819,0.0956,0.1068,0.1201,0.1276,0.1404,0.1408,0.1403,0.1483,0.141,0.1409,0.1409,0.1381,0.1388,0.1404,0.1405,0.1406,0.1407,0.1407,0,0.0423,0.0448,0.0476,0.0524,0.0551,0.0593,0.065,0.0684,0.0775,0.0929,0.107,0.1088,0.1203,0.1272,0.1293,0.1322,0.1268,0.1255,0.118,0.1188,0.1195,0.1152,0.1116,0.1115,0.1114,0.1113,0,0,0.0396,0.0411,0.0437,0.0473,0.051,0.0541,0.057,0.0639,0.0738,0.0851,0.0949,0.1142,0.1235,0.1142,0.1168,0.1154,0.1141,0.1109,0.1349,0.1268,0.1273,0.1304,0.1252,0,0,0,0,0]},{"header":{"parameterUnit":"m.s-1","parameterCategory":2,"la1":30.2991,"la2":30.254,"lo1":-89.0895,"lo2":-89.0444,"dy":0.0017,"dx":0.0017,"nx":28,"ny":28,"refTime":"2023-07-19T03:00:00:Z","depth":"2","parameterNumber":3,"parameterNumberName":"V-component_of_CURRENTS"},"data":[0,0,0,0,0,0,0,0,0,0,0,0,0,0,0,0,0,0,0,0,0,0,0,0,0,0,0,0,0,0,0,0,0,0,0,0,0,0,0,0,0,0,0,0,0,0,0,0,0,0,0,0,0,0,0,0,0,0,-0.1076,-0.1075,0,-0.0989,-0.0988,-0.0987,-0.0924,-0.0924,-0.0923,-0.0923,-0.0809,-0.0807,-0.0804,0,0,0,0,0,0,0,0,0,0,0,0,0,-0.1159,-0.1158,-0.1076,-0.1075,-0.1074,-0.0989,-0.0988,-0.0986,-0.0924,-0.0924,-0.0923,-0.0923,-0.081,-0.0807,-0.0804,0,0,0,0,0,0,0,0,0,0,0,0,0,-0.1101,-0.1158,-0.1076,-0.1034,-0.103,-0.0989,-0.0988,-0.0986,-0.0924,-0.0924,-0.0923,-0.0923,-0.0811,-0.0807,-0.0803,-0.0788,0,0,-0.0791,-0.0789,0,0,0,0,0,0,0,0,-0.1104,-0.1098,-0.1041,-0.1037,-0.1032,-0.0969,-0.0975,-0.0919,-0.0924,-0.0962,-0.0923,-0.0922,-0.0862,-0.0854,-0.0836,-0.0782,-0.0778,-0.079,-0.0788,-0.0786,-0.0785,0,0,0,0,0,0,0,-0.1109,-0.1101,-0.1039,-0.1041,-0.1035,-0.101,-0.1001,-0.0964,-0.0914,-0.0959,-0.0954,-0.0948,-0.0859,-0.084,-0.0832,-0.0776,-0.079,-0.0787,-0.0784,-0.0783,-0.0685,-0.0685,0,0,0,0,0,0,-0.1125,-0.1105,-0.1042,-0.1037,-0.107,-0.1009,-0.0999,-0.0988,-0.0914,-0.0904,-0.0949,-0.0946,-0.0847,-0.0837,-0.0828,-0.077,-0.0786,-0.0782,-0.078,-0.0685,-0.0685,-0.0685,0,0,0,0,0,0,-0.1127,-0.112,-0.1046,-0.1071,-0.106,-0.1009,-0.0996,-0.0986,-0.0948,-0.0908,-0.0896,-0.0919,-0.0846,-0.0834,-0.0788,-0.0766,-0.078,-0.0777,-0.0686,-0.0685,-0.0685,-0.0676,0,0,0,0,0,0,-0.113,-0.1122,-0.111,-0.1072,-0.1059,-0.1008,-0.0996,-0.0985,-0.0947,-0.0942,-0.0878,-0.0868,-0.0845,-0.0795,-0.0784,-0.0761,-0.0774,-0.0686,-0.0685,-0.0685,-0.0677,-0.0676,-0.0675,0,0,0,0,0,-0.1133,-0.1116,-0.111,-0.1102,-0.1048,-0.1007,-0.0997,-0.0959,-0.0946,-0.0923,-0.0891,-0.0869,-0.0786,-0.0791,-0.0779,-0.0754,-0.0686,-0.0686,-0.0685,-0.0677,-0.0676,-0.0675,0,0,0,0,0,0,-0.1137,-0.1107,-0.11,-0.1072,-0.104,-0.0997,-0.0973,-0.095,-0.0905,-0.0897,-0.0861,-0.0849,-0.0803,-0.0785,-0.0791,-0.0729,-0.0734,-0.0732,-0.0732,-0.0731,-0.073,-0.0727,-0.077,0,0,0,0,0,-0.1139,-0.1122,-0.1089,-0.1066,-0.1051,-0.1011,-0.0987,-0.0961,-0.0923,-0.0901,-0.086,-0.0824,-0.0796,-0.0768,-0.0739,-0.0697,-0.0706,-0.0677,-0.0676,-0.0675,-0.0667,-0.0687,-0.0687,-0.0684,-0.0684,-0.0684,0,0,-0.1133,-0.1117,-0.1105,-0.1067,-0.1039,-0.1005,-0.0994,-0.0952,-0.0921,-0.0897,-0.0837,-0.0815,-0.0786,-0.0745,-0.0723,-0.0722,-0.0682,-0.0675,-0.0674,-0.0666,-0.0686,-0.0687,-0.0687,-0.0684,-0.0684,-0.0684,0,0,-0.1115,-0.1101,-0.1079,-0.1052,-0.1014,-0.0991,-0.0977,-0.0926,-0.0899,-0.0849,-0.0833,-0.08,-0.074,-0.0719,-0.0703,-0.0679,-0.0681,-0.067,-0.0652,-0.0671,-0.0672,-0.0672,-0.0687,-0.0689,-0.0665,-0.0665,-0.0665,0,-0.1106,-0.1077,-0.1064,-0.1034,-0.1009,-0.0984,-0.0947,-0.0919,-0.0858,-0.084,-0.0828,-0.076,-0.0728,-0.0694,-0.0683,-0.0674,-0.069,-0.0656,-0.067,-0.0671,-0.0672,-0.0687,-0.0689,-0.0664,-0.0664,-0.0664,-0.0664,0,-0.1072,-0.1043,-0.1026,-0.0987,-0.096,-0.0923,-0.0892,-0.0859,-0.0829,-0.0805,-0.0761,-0.073,-0.0691,-0.0678,-0.0664,-0.065,-0.0663,-0.0673,-0.0674,-0.0672,-0.0688,-0.069,-0.0663,-0.0664,-0.0664,-0.0664,0,0,-0.105,-0.101,-0.0999,-0.0973,-0.093,-0.0898,-0.0863,-0.0821,-0.0792,-0.0753,-0.072,-0.0674,-0.0667,-0.0649,-0.0637,-0.0641,-0.0653,-0.0652,-0.0654,-0.0668,-0.0699,-0.0711,-0.0715,-0.0673,-0.0673,-0.0674,-0.071,0,-0.1018,-0.0962,-0.0952,-0.089,-0.0854,-0.0835,-0.0801,-0.0767,-0.0741,-0.0706,-0.0695,-0.0654,-0.0657,-0.063,-0.0642,-0.0639,-0.0658,-0.0642,-0.0698,-0.0699,-0.0711,-0.0717,-0.0679,-0.0708,-0.0712,-0.0713,-0.0713,0,-0.0973,-0.0945,-0.0882,-0.0836,-0.0818,-0.0778,-0.0726,-0.0694,-0.0667,-0.0649,-0.0635,-0.063,-0.0612,-0.0624,-0.0644,-0.0636,-0.0669,-0.0681,-0.0684,-0.0697,-0.0715,-0.071,-0.0712,-0.0717,-0.0717,-0.0717,-0.0716,0,-0.0943,-0.0889,-0.0838,-0.0817,-0.0765,-0.0731,-0.07,-0.0665,-0.0633,-0.0611,-0.0588,-0.0595,-0.0576,-0.0619,-0.0654,-0.0645,-0.0701,-0.0694,-0.0745,-0.0746,-0.0723,-0.0722,-0.0739,-0.0739,-0.0738,-0.0738,-0.0738,0,-0.09,-0.0853,-0.0814,-0.0777,-0.0713,-0.0692,-0.0626,-0.0603,-0.0571,-0.0528,-0.0552,-0.0529,-0.0576,-0.0616,-0.0659,-0.0713,-0.0714,-0.0741,-0.0757,-0.0719,-0.0717,-0.0731,-0.0729,-0.074,-0.0739,-0.0739,-0.0739,0,-0.0852,-0.0831,-0.0765,-0.071,-0.0689,-0.0634,-0.0571,-0.0531,-0.0508,-0.0457,-0.0446,-0.0473,-0.0515,-0.0595,-0.0661,-0.0705,-0.0762,-0.0797,-0.075,-0.0759,-0.0788,-0.0786,-0.082,-0.0821,-0.0821,-0.0822,-0.0822,0,-0.0817,-0.0779,-0.071,-0.0668,-0.0631,-0.0563,-0.0518,-0.049,-0.0453,-0.0416,-0.0392,-0.0431,-0.044,-0.0565,-0.0661,-0.0758,-0.0797,-0.0802,-0.0771,-0.0784,-0.0797,-0.0793,-0.079,-0.0737,-0.0736,-0.0736,-0.0736,0,-0.0749,-0.0723,-0.0675,-0.0597,-0.0537,-0.0482,-0.0419,-0.0386,-0.0351,-0.031,-0.0276,-0.0279,-0.0397,-0.0476,-0.0641,-0.071,-0.0775,-0.0799,-0.0835,-0.0724,-0.071,-0.0721,-0.0719,-0.0734,-0.0734,-0.0734,-0.0734,-0.0734,-0.0692,-0.0649,-0.0589,-0.0514,-0.0457,-0.0395,-0.0336,-0.0285,-0.022,-0.0133,-0.0175,-0.0137,-0.0284,-0.0435,-0.0586,-0.0741,-0.0748,-0.078,-0.0779,-0.0779,-0.0765,-0.0752,-0.0781,-0.0782,-0.0782,-0.0783,-0.0783,0,-0.0615,-0.0578,-0.0511,-0.0426,-0.0362,-0.0338,-0.0265,-0.0209,-0.0118,-0.0041,0.0011,-0.006,-0.017,-0.0342,-0.0546,-0.0685,-0.0685,-0.0737,-0.0698,-0.0701,-0.0703,-0.0683,-0.0679,-0.0679,-0.0679,-0.0679,0,0,-0.0571,-0.0501,-0.0475,-0.0355,-0.0293,-0.0198,-0.0147,-0.0072,-0.0009,0.0094,0.0152,0.0148,-0.0083,-0.0198,-0.0418,-0.0539,-0.0582,-0.0565,-0.0637,-0.057,-0.0569,-0.0723,-0.0696,0,0,0,0,0]}],[{"header":{"parameterUnit":"m.s-1","parameterCategory":2,"la1":30.2991,"la2":30.254,"lo1":-89.0895,"lo2":-89.0444,"dy":0.0017,"dx":0.0017,"nx":28,"ny":28,"refTime":"2023-07-19T03:00:00:Z","depth":"4","parameterNumber":2,"parameterNumberName":"U-component_of_CURRENTS"},"data":[0,0,0,0,0,0,0,0,0,0,0,0,0,0,0,0,0,0,0,0,0,0,0,0,0,0,0,0,0,0,0,0,0,0,0,0,0,0,0,0,0,0,0,0,0,0,0,0,0,0,0,0,0,0,0,0,0,0,0.0467,0.0468,0,0.0516,0.0516,0.0517,0.0556,0.0556,0.0557,0.0557,0.059,0.0591,0.0591,0,0,0,0,0,0,0,0,0,0,0,0,0,0.0434,0.0434,0.0467,0.0468,0.0468,0.0516,0.0516,0.0517,0.0556,0.0556,0.0557,0.0557,0.059,0.0591,0.0591,0,0,0,0,0,0,0,0,0,0,0,0,0,0.0462,0.0434,0.0467,0.0493,0.0496,0.0516,0.0516,0.0517,0.0556,0.0556,0.0557,0.0557,0.059,0.0591,0.0591,0.0587,0,0,0.0594,0.0594,0,0,0,0,0,0,0,0,0.0461,0.0464,0.0489,0.0491,0.0494,0.053,0.0517,0.054,0.0556,0.0534,0.0557,0.0557,0.0568,0.057,0.058,0.0589,0.059,0.0594,0.0595,0.0595,0.0595,0,0,0,0,0,0,0,0.0459,0.0462,0.0487,0.0489,0.0493,0.0511,0.0515,0.0522,0.0548,0.0536,0.0538,0.0542,0.0569,0.0579,0.0581,0.0591,0.0594,0.0595,0.0595,0.0596,0.0629,0.063,0,0,0,0,0,0,0.0449,0.046,0.0486,0.0489,0.0477,0.0511,0.0516,0.0518,0.0548,0.0553,0.0542,0.0544,0.0577,0.058,0.0582,0.0609,0.0595,0.0596,0.0596,0.0629,0.0629,0.063,0,0,0,0,0,0,0.0448,0.0451,0.0484,0.0475,0.048,0.051,0.0513,0.0519,0.0542,0.0553,0.0558,0.056,0.0578,0.0581,0.06,0.0609,0.0596,0.0597,0.0629,0.0629,0.063,0.0643,0,0,0,0,0,0,0.0447,0.045,0.0456,0.0474,0.048,0.0503,0.0513,0.052,0.0543,0.0546,0.057,0.0573,0.0578,0.0598,0.0601,0.061,0.0598,0.0628,0.0629,0.0629,0.0642,0.0644,0.0645,0,0,0,0,0,0.0446,0.0449,0.0456,0.046,0.0485,0.0503,0.0509,0.0532,0.0543,0.0554,0.0571,0.0573,0.0604,0.06,0.0602,0.0612,0.0628,0.0629,0.0629,0.0641,0.0643,0.0645,0,0,0,0,0,0,0.0436,0.0453,0.0462,0.047,0.0489,0.051,0.0523,0.0538,0.0561,0.0569,0.0578,0.0582,0.06,0.0604,0.0599,0.0623,0.0616,0.0617,0.0624,0.0626,0.0628,0.0625,0.0598,0,0,0,0,0,0.0436,0.0444,0.0463,0.0471,0.048,0.0504,0.0517,0.0535,0.0553,0.0566,0.058,0.0594,0.0603,0.0614,0.0621,0.0637,0.0644,0.0644,0.0646,0.0648,0.0647,0.066,0.0663,0.0632,0.0632,0.0632,0,0,0.0433,0.0445,0.0449,0.047,0.0486,0.0505,0.0513,0.0538,0.0557,0.0564,0.0594,0.06,0.0607,0.0624,0.0633,0.0632,0.0663,0.0649,0.065,0.0649,0.0661,0.0664,0.0667,0.0633,0.0633,0.0633,0,0,0.0431,0.0443,0.0452,0.047,0.0498,0.0513,0.0522,0.055,0.0568,0.0594,0.06,0.0612,0.0634,0.0638,0.0643,0.0658,0.0668,0.0664,0.0676,0.0688,0.0691,0.0693,0.0719,0.0724,0.0669,0.0669,0.0669,0,0.0429,0.0444,0.0458,0.0475,0.0493,0.0517,0.0537,0.0556,0.0588,0.0603,0.0607,0.0635,0.0638,0.0653,0.0659,0.0661,0.0677,0.0668,0.0691,0.0693,0.0695,0.0721,0.0726,0.067,0.067,0.067,0.067,0,0.0437,0.0455,0.0462,0.0492,0.0512,0.0533,0.0559,0.0583,0.0605,0.0624,0.0648,0.0652,0.0672,0.0671,0.067,0.0687,0.0698,0.0688,0.0685,0.0699,0.0726,0.073,0.0671,0.0671,0.067,0.067,0,0,0.0414,0.0459,0.0463,0.0484,0.0526,0.0542,0.0573,0.0607,0.0633,0.0655,0.0683,0.0687,0.0696,0.0701,0.07,0.0705,0.0733,0.0707,0.0707,0.0732,0.0778,0.0775,0.078,0.0731,0.0732,0.0732,0.0796,0,0.0419,0.0452,0.0475,0.0512,0.0533,0.0567,0.0593,0.0629,0.0658,0.0691,0.0697,0.0721,0.0707,0.072,0.0723,0.073,0.0744,0.0718,0.0761,0.0762,0.0757,0.0784,0.0734,0.0799,0.08,0.0801,0.0802,0,0.0418,0.0444,0.0478,0.0529,0.0542,0.0567,0.062,0.0649,0.0695,0.0719,0.0745,0.0758,0.0776,0.0757,0.0782,0.077,0.0778,0.0776,0.0779,0.0772,0.0767,0.0779,0.081,0.081,0.0809,0.0808,0.0808,0,0.0393,0.0445,0.0473,0.0491,0.0549,0.0574,0.0608,0.0657,0.0687,0.0742,0.0772,0.0796,0.0819,0.0823,0.0837,0.0815,0.0865,0.0836,0.0841,0.0842,0.0818,0.0815,0.0852,0.0852,0.0851,0.0851,0.0851,0,0.0384,0.0407,0.0466,0.048,0.0519,0.0567,0.061,0.0648,0.0704,0.0741,0.0786,0.0817,0.0836,0.087,0.0864,0.0882,0.0896,0.0851,0.0857,0.0825,0.0821,0.0823,0.0819,0.0854,0.0853,0.0853,0.0852,0,0.0348,0.0387,0.042,0.0483,0.0506,0.0532,0.0606,0.0635,0.07,0.0751,0.0773,0.0846,0.0901,0.0928,0.0951,0.0926,0.0934,0.0937,0.0928,0.0931,0.0894,0.089,0.094,0.094,0.0941,0.0941,0.0941,0,0.0333,0.0345,0.0408,0.043,0.0459,0.051,0.0542,0.0617,0.065,0.0761,0.0778,0.087,0.0913,0.0952,0.098,0.1001,0.0982,0.0983,0.0904,0.0902,0.0903,0.0898,0.0893,0.0942,0.0942,0.0942,0.0942,0,0.0296,0.0317,0.0343,0.039,0.0427,0.0469,0.0524,0.0548,0.0639,0.0701,0.0772,0.0825,0.0902,0.094,0.0986,0.0983,0.0975,0.0986,0.0983,0.0909,0.0905,0.0904,0.0899,0.0943,0.0943,0.0943,0.0943,0,0.0262,0.0268,0.0305,0.0347,0.039,0.0426,0.0462,0.0519,0.0567,0.0686,0.0709,0.0815,0.0887,0.0935,0.0965,0.0986,0.0956,0.0901,0.0903,0.0902,0.0863,0.085,0.0885,0,0,0,0,0,0.0228,0.0238,0.0267,0.0314,0.0357,0.039,0.0451,0.0491,0.0578,0.0607,0.0659,0.073,0.0814,0.0869,0.0885,0.0955,0.0959,0.0969,0.0894,0.095,0.0948,0.0907,0,0,0,0,0,0,0.0205,0.0224,0.0248,0.0284,0.0314,0.0361,0.04,0.0458,0.0482,0.0571,0.0619,0.0687,0.0776,0.0798,0.087,0.0888,0.0828,0.1033,0.1032,0.0951,0.0949,0.0948,0.0905,0,0,0,0,0]},{"header":{"parameterUnit":"m.s-1","parameterCategory":2,"la1":30.2991,"la2":30.254,"lo1":-89.0895,"lo2":-89.0444,"dy":0.0017,"dx":0.0017,"nx":28,"ny":28,"refTime":"2023-07-19T03:00:00:Z","depth":"4","parameterNumber":3,"parameterNumberName":"V-component_of_CURRENTS"},"data":[0,0,0,0,0,0,0,0,0,0,0,0,0,0,0,0,0,0,0,0,0,0,0,0,0,0,0,0,0,0,0,0,0,0,0,0,0,0,0,0,0,0,0,0,0,0,0,0,0,0,0,0,0,0,0,0,0,0,-0.0448,-0.0448,0,-0.0504,-0.0505,-0.0506,-0.0527,-0.0527,-0.0526,-0.0526,-0.0572,-0.0574,-0.0575,0,0,0,0,0,0,0,0,0,0,0,0,0,-0.0422,-0.0422,-0.0448,-0.0448,-0.0449,-0.0504,-0.0505,-0.0506,-0.0527,-0.0527,-0.0526,-0.0526,-0.0572,-0.0573,-0.0575,0,0,0,0,0,0,0,0,0,0,0,0,0,-0.0451,-0.0422,-0.0448,-0.0466,-0.0468,-0.0504,-0.0505,-0.0506,-0.0527,-0.0527,-0.0526,-0.0526,-0.0571,-0.0573,-0.0575,-0.0594,0,0,-0.0582,-0.0583,0,0,0,0,0,0,0,0,-0.0449,-0.0452,-0.0463,-0.0465,-0.0467,-0.0508,-0.0513,-0.0535,-0.0527,-0.0505,-0.0526,-0.0526,-0.055,-0.0554,-0.0565,-0.0596,-0.0598,-0.0582,-0.0583,-0.0584,-0.0585,0,0,0,0,0,0,0,-0.0447,-0.045,-0.047,-0.0463,-0.0466,-0.0493,-0.0497,-0.0517,-0.0528,-0.0507,-0.0508,-0.0514,-0.0551,-0.0563,-0.0567,-0.0599,-0.0582,-0.0584,-0.0585,-0.0586,-0.0681,-0.0682,0,0,0,0,0,0,-0.0437,-0.0448,-0.0468,-0.0472,-0.0457,-0.0494,-0.0498,-0.0495,-0.0528,-0.0533,-0.0515,-0.0515,-0.056,-0.0564,-0.0568,-0.062,-0.0584,-0.0586,-0.0587,-0.068,-0.0681,-0.0683,0,0,0,0,0,0,-0.0436,-0.0438,-0.0466,-0.0462,-0.0467,-0.0494,-0.0492,-0.0497,-0.0524,-0.0534,-0.0539,-0.0538,-0.056,-0.0565,-0.0599,-0.0621,-0.0587,-0.0589,-0.0678,-0.068,-0.0682,-0.0707,0,0,0,0,0,0,-0.0435,-0.0437,-0.0446,-0.046,-0.0467,-0.0495,-0.0492,-0.0498,-0.0527,-0.0528,-0.0556,-0.0559,-0.056,-0.0596,-0.0601,-0.0623,-0.0591,-0.0677,-0.0679,-0.0681,-0.0704,-0.0709,-0.0713,0,0,0,0,0,-0.0433,-0.0442,-0.0446,-0.0449,-0.0473,-0.0495,-0.0502,-0.052,-0.0528,-0.0543,-0.0563,-0.0559,-0.0615,-0.0599,-0.0605,-0.0628,-0.0676,-0.0679,-0.0681,-0.0702,-0.0708,-0.0713,0,0,0,0,0,0,-0.0442,-0.0446,-0.045,-0.0461,-0.0481,-0.0499,-0.0517,-0.0532,-0.0561,-0.0568,-0.0575,-0.058,-0.0619,-0.0623,-0.0605,-0.0663,-0.0645,-0.0649,-0.0659,-0.0665,-0.0669,-0.0657,-0.0592,0,0,0,0,0,-0.0446,-0.0452,-0.0463,-0.0477,-0.0482,-0.0504,-0.0521,-0.0536,-0.0557,-0.0571,-0.059,-0.0612,-0.0635,-0.0648,-0.0669,-0.0701,-0.0691,-0.0721,-0.0726,-0.0729,-0.0725,-0.0732,-0.0736,-0.0692,-0.0692,-0.0692,0,0,-0.0454,-0.0459,-0.0464,-0.048,-0.0494,-0.0506,-0.0514,-0.0544,-0.0563,-0.0572,-0.061,-0.0632,-0.0648,-0.0683,-0.0701,-0.0689,-0.0737,-0.0733,-0.0736,-0.0729,-0.0735,-0.0739,-0.0743,-0.0694,-0.0694,-0.0693,0,0,-0.0466,-0.0475,-0.048,-0.0493,-0.0518,-0.0528,-0.0539,-0.0567,-0.0587,-0.0629,-0.0638,-0.0671,-0.0711,-0.0722,-0.0732,-0.0776,-0.0763,-0.0791,-0.0802,-0.081,-0.0813,-0.0815,-0.0804,-0.0805,-0.0791,-0.0791,-0.0791,0,-0.048,-0.0477,-0.049,-0.0498,-0.0507,-0.0536,-0.0543,-0.0572,-0.0615,-0.0627,-0.0644,-0.0705,-0.0726,-0.0753,-0.0774,-0.0785,-0.0781,-0.0778,-0.0814,-0.0816,-0.0818,-0.0806,-0.0807,-0.0792,-0.0792,-0.0792,-0.0792,0,-0.0485,-0.0491,-0.0497,-0.0507,-0.0524,-0.054,-0.0566,-0.0596,-0.0628,-0.0651,-0.07,-0.0737,-0.0762,-0.0788,-0.0798,-0.0829,-0.0818,-0.0819,-0.0794,-0.0824,-0.0809,-0.081,-0.0794,-0.0794,-0.0793,-0.0793,0,0,-0.0487,-0.0495,-0.0499,-0.0493,-0.0527,-0.0534,-0.057,-0.0594,-0.0605,-0.0672,-0.0686,-0.0757,-0.0777,-0.0791,-0.0814,-0.0837,-0.0858,-0.084,-0.084,-0.0819,-0.0863,-0.0803,-0.0798,-0.0867,-0.0868,-0.0868,-0.0844,0,-0.0484,-0.0483,-0.0497,-0.0502,-0.0495,-0.0527,-0.0547,-0.0583,-0.0618,-0.0643,-0.07,-0.0726,-0.0777,-0.0789,-0.0826,-0.0846,-0.0862,-0.0864,-0.0846,-0.0845,-0.078,-0.0798,-0.087,-0.0844,-0.0845,-0.0845,-0.0845,0,-0.0474,-0.0472,-0.0468,-0.0468,-0.0469,-0.0484,-0.0501,-0.0527,-0.0573,-0.0599,-0.0649,-0.0684,-0.0736,-0.0769,-0.0827,-0.0826,-0.0848,-0.0869,-0.0868,-0.0802,-0.0787,-0.0811,-0.0846,-0.0846,-0.0845,-0.0845,-0.0845,0,-0.0439,-0.0447,-0.0436,-0.0441,-0.0454,-0.0462,-0.0476,-0.0514,-0.0523,-0.0567,-0.0571,-0.0643,-0.0661,-0.0722,-0.0782,-0.0803,-0.0827,-0.085,-0.0815,-0.0811,-0.0859,-0.0856,-0.0881,-0.0881,-0.0881,-0.0881,-0.0881,0,-0.0412,-0.0407,-0.0418,-0.0411,-0.0401,-0.0426,-0.0424,-0.0449,-0.0473,-0.0469,-0.0541,-0.0543,-0.0652,-0.0685,-0.0753,-0.0776,-0.08,-0.0812,-0.0802,-0.087,-0.087,-0.0859,-0.0857,-0.088,-0.088,-0.088,-0.088,0,-0.0377,-0.0384,-0.0369,-0.0378,-0.0381,-0.0376,-0.0388,-0.0384,-0.0409,-0.0403,-0.0411,-0.0463,-0.05,-0.0589,-0.0663,-0.0708,-0.0752,-0.0751,-0.0795,-0.0789,-0.0739,-0.0739,-0.0713,-0.071,-0.0708,-0.0707,-0.0705,0,-0.0357,-0.0345,-0.0343,-0.0334,-0.034,-0.0338,-0.0335,-0.0356,-0.0349,-0.0347,-0.0334,-0.036,-0.0402,-0.0445,-0.0556,-0.065,-0.0672,-0.0688,-0.0749,-0.0729,-0.0723,-0.0725,-0.0728,-0.0702,-0.0702,-0.0701,-0.0701,0,-0.0323,-0.0327,-0.0315,-0.0297,-0.0289,-0.0276,-0.0271,-0.0252,-0.0263,-0.0277,-0.0244,-0.0281,-0.0305,-0.0395,-0.0455,-0.0538,-0.0682,-0.0669,-0.0675,-0.0732,-0.0717,-0.0713,-0.0717,-0.0694,-0.0695,-0.0696,-0.0696,0,-0.0304,-0.0289,-0.0278,-0.0261,-0.0249,-0.0225,-0.022,-0.0198,-0.0188,-0.0185,-0.0167,-0.0213,-0.0252,-0.0333,-0.0397,-0.0461,-0.0497,-0.0534,-0.0548,-0.0557,-0.0532,-0.0491,-0.0383,0,0,0,0,0,-0.0287,-0.0269,-0.0245,-0.0224,-0.0212,-0.0211,-0.0185,-0.0182,-0.0178,-0.0136,-0.0149,-0.0169,-0.024,-0.028,-0.0329,-0.0392,-0.0529,-0.0453,-0.0584,-0.0657,-0.0665,-0.0659,0,0,0,0,0,0,-0.0274,-0.0253,-0.0237,-0.0205,-0.0193,-0.0176,-0.0162,-0.0153,-0.0129,-0.0127,-0.0159,-0.0182,-0.0256,-0.0211,-0.033,-0.0352,-0.044,-0.0496,-0.0497,-0.0653,-0.066,-0.0666,-0.0662,0,0,0,0,0]}]]